Location: ??????
(55.4348°N, 39.2112°E)
Time: 09:38:09
(UTC+00:00)

ATLAS 2AS CENTAUR R/B - Pass Details

Date: 14 April 2024
Orbit: 1016 x 1195 km, 63.7° (Epoch: 27 May)

Event Time Altitude Azimuth Distance (km) Brightness Sun altitude
Rises 01:10:20 0° 192° (SSW) 4,056 5.3 -9.8°
Reaches altitude 10° 01:13:16 10° 185° (S) 3,079 4.8 -9.5°
Maximum altitude 01:19:55 38° 121° (ESE) 1,667 4.0 -8.7°
Drops below altitude 10° 01:26:22 10° 56° (NE) 2,984 6.8 -7.9°
Sets 01:29:10 0° 49° (NE) 3,918 7.7 -7.5°
